STARLINK-5490, 57254

Orbit data source: Space-Track

STARLINK-5490, 57254 is a payload satellite owned by SpaceX/Seattle (US) in LEO that was launched on Fri, 07 Jul 2023 UTC via an FALCON 9 launch vehicle from the Air Force Western Test Range (AFWTR). Payload-class satellites include a variety of spacecraft equipped with specific instruments for various scientific and technological missions. These include communications satellites like Starlink; space stations such as the ISS; scientific satellites like the Hubble; Earth observation satellites from companies like Planet Labs, Umbra, and HawkEye 360; GPS; miniature CubeSats for education and research; and military/defense satellites.

Loading next visibility...
Identifier
57254, 2023-094AN
Orbit
LEO
Country
Flag of USUS
Related business
Manufacturer
SpaceX/Seattle
Mission
Operational Commercial Communications
Bus & Motor
STARLINK, Unknown motor
Mass
305 kg wet, ~290 kg dry
Launch date (UTC)
2023-07-07 (3 years ago)
Launch vehicle
FALCON 9
Launch site
Air Force Western Test Range (AFWTR)
Object type
Payload
Rocket body
Debris
Shape & HBR
Box + 1 Pan, 10.1 m
Radar Cross Section
11.087 m², Large (>1 m²)

Expand to show TLE details & history
Last TLE update: 3 days ago

TLE from 3 days ago
0 STARLINK-5490
1 57254U 23094AN  26171.02277050 -.00000211  00000-0  18515-5 0  9991
2 57254  43.0031 161.6934 0001551 290.9709  69.0977 15.27574110162891
Epoch: 2026-06-20T00:32Z
TLE epoch observation values (Epoch: 2026-06-20T00:32:47.371Z)
Latitude
0.00002°
Longitude
-114.74732°
Altitude
482.463 km
Speed
7.626 km/s
True Right ascension
10h 46m 46s
True Declination
0° 00' 00"
Sunlit
Object was in daylight at epoch
Visualization orbit readout
Latitude
Unknown
Longitude
Unknown
Altitude
Unknown
Speed
Unknown
Apparent Right ascension
Unknown
Apparent Declination
Unknown
Sunlit
N/A
Visualization observer readout
Local Sidereal Time
00:31:42
Azimuth
Unknown
Elevation
Unknown
Doppler factor
Unknown
Orbital elements
Apogee altitude
486.076 km
Perigee altitude
483.947 km
Semi-major axis
6,863.148 km
Eccentricity
0.00016
Inclination
43.0031°
RAAN
161.6934°
Arg. of periapsis
290.9709°
True anomaly
69.1143°
Mean anomaly
69.0977°
Eccentric anomaly
69.106°
Mean motion
3.81732 °/min
Orbital period
94.31 mins
BSTAR
0.0000018515
Loading maneuver chart data...
Computing Atmospheric mass density...
Loading historical data...
Loading historical data...
Loading historical data...
Loading historical data...
Loading historical data...
Loading historical data...
Loading historical data...

Documentation

Showing up to 5 results
|